Flag for Japan Weather past 2 weeks in Suzuka, Japan

Now
57 °F

Cool.


Feels Like: 56 °F
Forecast: 44 / 57 °F
Wind: 5 mph from Northeast

Location: Tsu

Current Time: Apr 1, 2015 at 2:15:06 PM

Latest Report: Apr 1, 2015 at 1:00 PM


Visibility: N/A

Pressure: 29.87 "Hg

Humidity: 94%

Dew point: 55 °F

Location of SuzukaLocation

Historic Weather in Suzuka — Graph

°F

Suzuka temperature yesterday

Maximum temperature yesterday: 63 °F (at 5:00 PM)
Minimum temperature yesterday: 47 °F (at 6:00 AM)
Average temperature yesterday: 56 °F

Past Weeks' High & Low Weather Summary

 TemperatureHumidityPressure
High68 °F (Mar 30, 1:00 PM)97% (Mar 18, 8:00 PM)30.53 "Hg (Mar 18, 8:00 PM)
Low38 °F (Mar 25, 4:00 AM)16% (Mar 26, 4:00 PM)29.70 "Hg (Mar 19, 2:00 PM)
Average53 °F63%30.10 "Hg
* Reported Mar 17 1:00 PM — Apr 1 1:00 PM, Suzuka, Weather by CustomWeather, © 2015

Note: Actual official high and low records may vary slightly from our data, if they occured in-between our weather recording intervals... More about our weather records

Advertising

Suzuka weather history for previous 24 hours

 ConditionsComfort  
Time TempWeatherWind HumidityBarometerVisibility
1:00 PM
Wed, Apr 1
57 °FCool.5 mph94%29.87 "HgN/A
11:00 AM56 °FCool.7 mph94%29.92 "HgN/A
10:00 AM56 °FCool.7 mph94%29.94 "HgN/A
9:00 AM56 °FLight rain. Overcast.7 mph94%29.95 "Hg1 mi
8:00 AM56 °FCool.3 mph96%29.96 "HgN/A
7:00 AM56 °FCool.2 mph96%29.96 "HgN/A
5:00 AM56 °FCool.No wind94%29.96 "HgN/A
4:00 AM57 °FCool.3 mph92%29.96 "HgN/A
3:00 AM58 °FCool.2 mph85%29.98 "HgN/A
2:00 AM58 °FCool.5 mph81%29.99 "HgN/A
1:00 AM57 °FCool.3 mph80%30.02 "HgN/A
12:00 AM58 °FCool.3 mph80%30.03 "HgN/A
11:00 PM
Tue, Mar 31
58 °FCool.1 mph80%30.03 "HgN/A
10:00 PM58 °FCool.3 mph80%30.04 "HgN/A
9:00 PM60 °FOvercast.2 mph77%30.06 "Hg6 mi
8:00 PM61 °FCool.1 mph78%30.06 "HgN/A
7:00 PM59 °FCool.5 mph84%30.04 "HgN/A
6:00 PM62 °FMild.5 mph71%30.04 "HgN/A
5:00 PM63 °FMild.6 mph70%30.04 "HgN/A
4:00 PM60 °FCool.3 mph75%30.05 "HgN/A
3:00 PM61 °FPartly sunny.3 mph67%30.06 "Hg6 mi
2:00 PM62 °FCool.5 mph63%30.09 "HgN/A
Weather by CustomWeather, © 2015

See weather overviewHow to use our weather pages